Theta_e
285 284 284 283 283 282 281 280 280 280 279 279 279 279 279 278 278 277 276 277 276 276 276 276 276 277 275 275 275 275 275 274 271 273 274 275 275 275 276 277 277 277 277
285 284 283 283 282 281 280 279 279 279 279 279 279 278 278 277 277 276 276 276 275 275 276 276 275 277 274 274 274 273 273 273 272 271 273 273 273 274 274 274 276 277 276
284 283 282 281 281 281 280 279 279 279 278 278 278 277 277 277 276 276 276 275 275 275 275 275 275 275 274 274 272 272 272 274 272 271 271 273 273 274 273 274 274 275 277
284 283 282 281 281 281 280 279 279 278 277 277 277 277 276 276 276 276 275 275 275 275 276 276 275 274 274 273 273 273 274 273 273 272 271 272 273 274 274 272 273 275 275
284 283 282 282 281 281 280 279 279 278 277 277 276 276 275 275 275 275 276 275 275 275 275 276 275 275 277 277 275 274 273 271 271 271 272 271 271 272 272 274 273 274 274
284 283 282 282 282 281 280 280 279 278 277 277 276 275 274 275 279 280 277 276 276 275 274 275 275 274 274 277 278 278 277 274 271 271 272 272 272 273 274 273 273 272 270
283 283 282 282 282 281 281 279 278 277 276 275 274 274 274 274 280 281 280 276 275 274 274 274 275 275 274 273 275 277 278 278 279 276 273 273 273 273 274 274 274 273 272
283 283 283 282 282 281 280 279 278 277 275 275 274 274 274 274 279 281 280 276 274 274 274 274 274 273 273 273 273 273 275 276 276 276 275 274 275 276 275 273 272 272 272
282 282 282 282 281 280 279 278 278 276 275 274 274 273 272 272 279 280 279 274 274 273 274 274 273 273 275 278 275 273 273 274 276 278 278 278 277 277 275 272 268 268 267
282 283 283 282 282 280 280 278 277 276 276 274 274 272 271 269 277 279 279 274 269 272 273 274 276 274 277 279 275 270 268 270 272 271 269 270 272 271 273 271 270 267 267
282 282 282 282 281 281 280 275 274 273 272 270 270 269 269 269 270 278 279 275 272 270 271 271 274 277 278 278 279 272 268 274 267 266 266 267 268 269 270 271 271 269 267
280 280 280 280 279 277 276 270 271 270 269 267 266 266 267 269 272 275 278 279 278 271 269 272 273 277 278 278 279 277 277 274 260 259 262 264 265 267 268 269 270 270 271
278 276 275 274 274 273 273 269 266 266 268 266 268 267 266 269 269 275 277 278 279 276 274 274 277 278 279 276 274 275 271 262 259 258 262 264 266 268 268 267 269 269 269
273 271 270 271 268 267 269 269 267 266 265 266 265 265 263 265 267 268 269 270 274 275 275 272 274 276 275 274 268 269 268 265 263 263 264 265 266 265 265 266 265 266 266
269 268 267 267 267 266 267 265 266 264 265 261 260 262 261 262 266 271 269 265 266 269 269 265 263 266 265 266 264 265 265 265 263 263 263 263 264 264 264 265 265 265 264
268 267 267 266 264 265 265 263 273 273 274 276 276 269 265 273 276 277 277 278 278 279 272 270 266 267 266 266 263 262 264 264 264 262 261 262 263 263 263 264 265 264 263
267 267 266 266 265 263 262 262 261 265 274 275 276 277 277 277 277 277 277 278 278 278 274 274 266 266 265 265 264 263 262 263 263 260 261 261 262 261 262 262 263 264 263
263 264 263 263 262 261 261 259 259 257 257 261 267 269 271 272 273 273 274 274 270 271 268 263 263 262 263 263 263 261 261 261 261 257 258 258 259 260 260 260 262 262 262
263 261 261 260 259 259 259 257 256 254 253 252 253 260 262 267 268 269 269 258 257 260 262 262 260 260 262 262 261 260 259 258 258 252 252 254 257 259 258 260 261 262 262
258 260 258 258 257 257 256 255 254 251 251 249 250 250 250 251 250 250 250 249 254 258 259 260 261 261 261 260 259 258 256 256 255 250 252 253 256 257 259 259 260 261 261
256 256 257 255 254 252 251 250 251 249 249 247 247 249 265 259 254 252 250 251 254 258 257 258 260 259 259 259 258 257 255 257 256 250 250 251 254 256 257 258 260 260 260
254 253 252 252 253 250 248 249 248 248 247 246 248 247 263 249 248 250 251 249 252 256 257 258 257 255 258 258 258 257 256 256 254 249 250 253 254 253 257 257 259 259 258
254 253 251 248 249 250 249 246 247 247 247 246 246 248 246 247 247 249 250 252 252 255 256 257 257 255 257 257 258 257 256 256 255 249 249 252 251 251 255 256 259 257 253
252 250 250 248 249 247 247 247 247 249 248 247 246 248 249 248 249 250 251 252 251 251 254 256 257 256 257 257 256 255 255 254 252 248 249 253 254 252 255 256 258 255 253
249 249 249 249 247 248 247 246 247 245 246 247 249 247 247 249 250 250 251 251 252 250 252 255 256 256 255 255 255 254 253 255 252 249 246 248 252 253 254 256 258 256 249
248 250 249 248 246 245 245 246 246 247 247 249 249 249 249 250 251 251 251 251 251 251 252 254 255 255 255 255 254 255 254 256 253 252 250 249 252 254 256 258 257 255 253
Wind_Speed
12 9 11 9 9 8 9 9 9 7 7 7 7 7 7 6 6 6 5 5 5 3 1 2 2 2 1 2 2 1 1 1 5 11 3 6 10 9 10 10 12 13 11
12 12 11 10 10 10 10 9 8 9 7 7 7 7 7 6 5 6 5 4 4 3 2 1 0 1 2 2 1 2 1 3 4 13 11 8 10 11 12 13 10 10 12
11 11 10 11 11 11 11 10 9 9 7 7 7 7 7 6 5 5 5 4 4 4 3 2 2 2 3 2 1 3 3 5 4 6 12 8 9 9 11 11 12 11 10
12 12 13 12 12 11 10 10 9 8 9 7 6 6 6 6 5 5 5 5 4 4 3 2 3 4 4 3 4 4 5 3 5 6 9 11 10 10 10 12 12 9 11
14 13 13 11 10 10 10 9 8 8 7 7 7 6 6 5 4 5 5 5 5 4 3 3 4 5 6 8 4 3 4 4 5 7 9 11 11 11 12 12 13 13 12
15 14 12 12 12 12 11 10 9 8 8 7 7 7 6 4 11 13 8 4 4 3 3 4 4 5 6 9 10 13 10 6 6 7 10 10 13 13 12 12 14 14 14
14 12 13 13 12 12 11 10 10 10 7 8 7 7 7 6 14 14 13 4 4 4 4 4 5 4 5 5 10 13 13 15 16 13 13 12 15 15 16 16 14 14 14
12 12 12 13 12 10 11 11 10 9 10 8 8 8 7 6 14 15 13 5 4 5 6 6 6 6 6 7 8 9 9 6 7 8 10 13 13 15 16 15 16 15 12
13 13 13 13 12 12 13 12 10 9 8 8 5 8 8 6 15 15 11 4 5 7 6 6 6 7 11 13 9 7 5 6 10 18 18 20 25 24 20 12 9 11 11
14 13 11 12 13 14 13 12 7 6 8 6 7 7 7 7 15 14 11 4 5 6 6 7 13 10 15 16 7 4 4 6 9 4 7 10 14 14 20 10 9 10 11
10 11 12 12 13 12 10 5 6 6 5 5 6 4 6 7 8 15 15 6 7 6 6 6 6 15 15 15 17 4 5 10 2 2 6 7 8 9 8 8 10 10 11
10 10 10 10 8 7 9 5 5 7 6 6 4 3 3 4 9 13 17 19 15 8 7 7 7 16 17 18 12 10 16 13 2 2 4 6 7 8 8 10 12 11 11
9 8 6 6 6 7 8 6 4 5 5 5 6 5 2 3 5 17 19 19 20 13 6 10 17 19 18 8 8 12 7 1 1 2 5 7 7 8 11 10 11 12 13
8 6 6 7 5 4 4 4 5 6 4 3 4 4 2 2 4 4 5 6 12 12 13 8 10 13 12 9 2 5 3 2 3 4 6 7 7 7 8 7 9 10 11
7 6 5 4 4 4 3 3 3 2 4 4 3 3 3 4 5 10 9 6 7 11 10 4 2 4 3 3 3 4 3 3 3 3 5 6 7 7 8 7 8 10 9
7 5 4 4 3 4 4 1 4 7 8 10 11 8 5 12 13 15 17 20 22 21 10 11 7 8 7 6 5 4 3 4 4 3 4 5 7 7 8 8 8 9 10
7 6 5 5 5 5 3 4 3 3 3 4 7 10 12 12 15 18 19 21 22 19 10 10 6 7 6 5 4 4 4 3 2 2 5 5 6 7 8 8 8 8 9
6 7 5 4 4 4 4 3 3 3 1 2 6 9 11 14 16 18 20 20 10 9 6 3 5 4 4 4 4 4 3 3 3 3 4 4 5 6 7 7 8 9 9
7 5 5 5 4 5 4 4 3 3 3 2 2 5 7 12 14 15 16 3 4 7 7 6 4 2 3 4 4 3 3 3 3 3 3 4 4 5 7 6 8 11 11
6 9 6 5 4 3 3 3 3 2 2 1 1 3 3 2 2 3 2 2 4 6 7 7 5 4 4 4 3 3 3 3 3 3 4 4 4 4 6 7 7 8 8
5 5 6 4 4 3 3 3 2 2 1 1 3 3 12 3 2 1 3 3 4 7 7 7 5 3 3 3 3 3 3 5 4 3 4 4 3 5 5 6 7 6 6
5 4 4 4 3 3 3 3 2 1 1 1 3 4 14 2 2 4 4 4 4 5 4 4 3 3 2 4 3 3 4 5 4 3 4 4 4 4 5 6 7 5 5
4 5 3 2 3 3 2 0 1 1 2 3 3 3 3 3 4 5 5 6 5 5 4 4 4 3 4 4 4 4 5 6 5 4 4 4 3 3 5 6 7 5 4
4 4 4 3 3 2 2 3 3 3 3 3 3 3 5 4 5 6 6 6 5 5 3 3 4 6 6 5 4 4 5 5 3 5 7 6 6 4 6 6 7 5 4
4 4 3 3 2 3 2 3 2 3 3 3 3 3 4 5 5 5 5 5 5 4 4 4 4 6 7 9 8 7 7 10 7 5 4 5 9 9 8 7 7 6 3
3 3 2 2 2 3 3 3 3 3 3 4 4 5 5 4 5 5 5 4 4 4 4 4 6 8 9 8 8 9 10 11 10 11 7 6 7 7 7 8 8 4 5
Wind_Direction
147 140 141 141 136 127 131 136 139 134 136 128 122 119 119 110 106 110 127 116 112 131 120 94 51 14 353 341 354 355 270 254 271 295 326 328 319 323 314 305 300 304 306
151 146 147 141 138 138 143 147 143 140 139 133 128 124 123 127 137 145 142 132 161 180 179 160 262 315 312 313 302 305 274 252 265 290 311 319 313 312 303 299 297 297 298
151 147 147 152 152 154 154 151 149 144 131 128 132 134 143 157 160 152 152 177 195 210 215 214 247 264 288 254 262 286 254 283 259 276 295 306 301 305 302 297 295 292 282
159 161 163 165 163 161 155 154 153 146 137 141 152 150 158 170 162 168 179 197 211 221 225 231 251 253 257 253 269 256 272 265 278 282 291 301 300 306 297 300 298 295 296
166 170 173 164 159 155 155 159 150 146 149 153 148 163 170 169 177 189 194 205 217 238 247 256 248 246 253 275 274 252 254 260 274 286 294 299 301 307 306 304 297 298 293
173 177 169 168 166 167 166 161 153 154 157 156 168 175 179 190 204 204 197 204 224 235 256 253 250 249 260 281 290 295 289 284 283 298 290 298 304 306 304 302 297 297 301
174 173 173 173 173 174 166 162 165 167 157 174 183 179 195 199 213 215 219 197 212 223 235 252 248 234 242 245 274 285 286 287 286 302 304 303 305 306 304 301 308 314 308
179 175 174 173 174 169 169 177 171 169 178 180 194 195 198 207 220 223 221 199 213 231 235 239 241 241 236 248 251 261 261 252 275 290 293 296 290 305 311 307 306 305 298
182 183 178 173 172 174 186 184 182 171 177 191 185 191 199 208 222 222 221 173 218 239 238 242 237 244 250 268 270 260 249 276 290 301 300 312 310 310 312 313 313 309 304
184 180 170 173 179 188 185 185 174 182 192 183 201 196 195 205 224 226 227 173 221 241 236 241 244 236 250 263 268 240 274 287 298 324 310 313 312 304 314 313 306 302 309
159 161 174 181 184 186 179 162 160 170 158 184 200 184 199 195 220 230 235 221 224 229 229 233 231 248 258 266 268 168 231 293 354 305 316 306 302 302 305 308 309 302 296
146 156 170 177 173 162 166 146 155 161 175 191 191 225 216 199 211 241 246 248 243 227 229 233 231 249 264 264 267 288 299 310 14 338 297 299 300 305 312 309 301 292 284
145 159 154 144 152 153 157 159 133 155 180 190 205 222 210 212 219 246 248 250 256 256 238 236 245 254 264 268 286 289 303 60 291 304 284 288 296 303 307 301 297 297 289
141 140 134 147 134 123 116 149 154 170 173 171 195 227 215 210 229 228 243 259 273 268 270 282 267 257 233 229 209 271 248 207 216 250 279 289 301 303 299 302 302 308 303
118 122 122 118 132 125 94 144 138 152 165 176 200 185 194 243 236 240 231 236 238 243 251 251 210 247 228 226 239 241 231 251 250 258 275 290 296 298 301 307 300 300 295
121 125 126 122 116 131 137 105 221 202 220 235 234 197 223 235 255 263 265 268 270 254 233 241 224 211 214 219 217 224 217 242 256 250 268 280 290 299 302 307 303 299 306
132 139 138 140 149 148 138 142 150 351 357 300 298 305 311 306 305 305 302 298 295 289 272 270 221 207 207 211 215 210 230 232 231 230 274 280 287 293 302 304 306 304 306
111 114 127 134 131 125 125 119 112 120 108 335 352 334 320 313 310 310 307 306 310 300 286 233 231 218 205 210 217 212 229 239 256 231 251 265 277 286 298 298 303 304 309
109 107 107 100 95 104 106 103 112 124 152 209 320 322 324 324 322 318 318 339 292 298 300 294 282 259 220 217 213 202 217 237 241 232 245 251 265 279 288 293 298 301 313
88 101 90 97 99 98 98 111 113 131 153 192 240 243 284 4 326 282 296 292 284 282 285 277 263 245 237 228 220 221 233 240 251 233 249 253 261 264 283 294 290 306 310
104 100 111 99 108 121 128 133 141 126 144 266 261 264 308 341 21 323 262 253 263 286 283 275 255 228 221 226 224 222 232 257 248 239 256 254 244 274 279 281 282 293 297
104 111 107 122 121 105 117 131 126 134 222 281 288 300 326 4 307 288 281 260 265 276 274 278 277 235 239 251 241 236 248 257 251 230 257 262 264 264 280 286 284 291 295
111 117 111 118 121 118 89 107 188 232 264 265 266 289 285 272 268 268 270 275 264 272 271 260 264 258 251 249 243 237 248 257 249 195 237 262 255 253 274 278 283 296 291
122 122 119 103 96 111 189 229 239 252 253 257 264 272 263 259 261 264 270 269 266 260 256 246 255 260 273 263 249 243 242 252 229 217 220 251 269 267 270 272 271 267 269
101 101 107 144 170 208 237 257 256 255 254 256 264 257 261 263 264 261 261 260 258 254 257 254 260 263 263 263 260 251 249 268 260 213 207 220 256 262 261 263 270 289 264
128 150 176 178 208 217 220 245 250 247 251 255 252 254 256 265 265 264 269 271 267 261 265 259 261 256 261 265 262 262 261 257 246 235 214 210 236 250 251 253 264 255 264